Zurück zum Katalog

DELTA 4 R/B

AktivHEO
NORAD 27692·ROCKET BODY·🇺🇸 United States

Gestartet Mar 11, 2003 von Cape Canaveral Space Force Station

Loading…

Nächste Überflüge (nächste 24 Stunden)

TLE

AktuellSource: Space-Track

Epoche: Sep 14, 2026, 19:04 UTC

1 27692U 03008B   26257.79471090  .00039079  00000-0  15367-2 0  9998
2 27692  25.2525 279.1075 5640022 265.8698  31.3670  4.66868050105563

Verfolge DELTA 4 R/B in Echtzeit mit AllMySat

Download on the App Store